Wind_Speed
22 23 23 24 25 25 24 22 21 21 22 22 23 23 24 24 24 24 23 22 21 20 20 20 20 20 19 19 19 18 18 18 17 17 17 16 16 17 16 16 16 16 16 15 16 15 15 15 14
22 23 24 25 26 26 24 23 22 22 22 22 23 24 24 24 25 24 23 23 22 21 21 20 21 21 21 21 20 20 20 19 19 19 19 18 18 18 18 17 17 17 17 17 16 16 16 16 16
24 25 26 27 27 27 25 24 23 24 24 23 24 24 24 24 24 24 24 24 23 23 22 22 22 22 22 22 22 22 22 21 21 21 21 20 20 19 19 19 18 18 18 18 18 17 17 17 18
24 26 27 28 27 27 26 25 25 25 25 24 25 25 24 24 24 24 25 25 25 25 24 23 23 23 23 23 23 24 23 23 23 23 23 22 22 21 21 21 20 20 20 20 20 19 19 19 19
25 26 27 27 27 26 26 25 26 26 26 26 26 26 25 25 25 25 25 26 26 25 25 24 24 25 24 25 25 26 26 26 25 25 25 25 24 24 23 23 22 22 22 22 22 22 21 20 20
25 26 27 27 26 26 27 27 27 26 26 27 27 27 26 26 26 26 27 27 27 26 27 27 26 26 26 26 27 27 27 28 28 27 27 27 27 26 26 25 25 24 24 24 24 24 23 23 22
25 26 26 26 26 26 26 27 27 27 27 27 27 28 28 28 28 28 28 28 28 28 28 28 28 28 28 28 28 29 29 29 29 29 28 28 28 28 28 27 27 26 26 26 26 26 26 25 25
24 25 25 25 24 25 26 26 27 28 27 28 28 28 28 28 29 29 29 30 30 30 30 30 30 30 31 30 30 30 30 31 31 30 30 30 29 29 29 29 29 28 28 28 28 28 28 28 27
24 26 25 24 24 24 25 27 27 27 28 28 28 29 29 29 29 29 29 29 30 31 32 32 31 31 32 31 31 31 31 31 31 31 31 31 31 31 31 30 30 30 30 29 30 30 30 29 29
24 25 25 25 25 25 25 26 27 28 28 28 28 28 30 30 30 29 29 29 30 31 32 32 32 32 33 33 32 32 32 32 32 32 31 31 31 31 31 31 31 32 32 32 31 32 32 31 31
24 25 25 26 26 26 26 27 27 28 28 28 29 28 29 30 30 31 31 31 30 31 31 32 33 34 34 34 34 33 33 33 34 33 32 32 32 32 32 32 32 32 33 33 33 33 33 33 34
24 24 25 25 26 27 27 27 28 29 29 29 29 30 31 31 31 32 32 32 32 31 32 32 33 35 35 36 36 36 34 34 34 34 34 34 34 34 34 34 34 34 34 34 34 35 36 36 36
23 23 24 24 25 26 27 27 28 29 30 30 30 31 32 33 33 33 34 33 33 32 33 33 33 34 35 35 36 37 36 36 36 36 36 36 36 35 35 35 35 35 35 36 36 36 37 37 37
22 22 23 24 25 26 27 28 29 29 30 31 32 33 32 33 33 34 34 35 35 34 34 35 35 35 36 36 37 36 37 37 37 37 37 37 37 37 37 37 36 37 37 37 38 38 38 38 39
22 22 23 24 24 24 26 27 28 28 29 31 32 33 33 33 34 34 34 35 36 36 36 36 37 36 37 37 38 38 37 38 39 38 38 38 39 39 39 38 38 37 38 39 39 39 39 40 40
22 23 23 23 23 23 25 26 26 28 29 30 32 33 33 33 34 35 35 36 36 37 37 37 38 38 38 39 39 39 39 38 38 39 39 39 39 40 40 40 40 40 40 40 40 40 40 41 41
23 23 23 23 24 24 25 26 26 28 30 31 32 33 33 33 33 34 36 36 37 38 38 39 39 39 40 40 40 40 40 40 40 40 40 40 40 41 41 41 41 42 42 42 43 42 42 42 42
23 23 23 24 24 25 26 26 27 29 30 31 33 33 33 34 33 34 35 37 38 39 39 40 40 40 40 40 41 42 42 42 42 42 42 42 42 42 42 43 43 43 43 43 44 44 43 43 43
23 23 24 24 25 26 26 26 27 28 30 32 33 34 33 32 33 35 36 37 38 39 39 40 40 39 41 41 42 42 43 44 44 44 44 43 43 44 44 44 44 44 44 44 44 44 44 44 45
24 24 25 26 27 27 28 27 27 28 30 31 32 34 34 33 32 33 35 37 38 38 39 39 40 41 41 41 42 43 44 45 45 46 46 45 45 45 45 45 45 45 45 45 45 46 46 46 46
25 25 26 27 28 29 30 30 29 29 30 31 32 33 33 33 33 33 34 36 38 38 38 39 40 41 42 42 43 43 44 45 46 47 47 47 47 47 47 47 47 46 46 46 47 47 47 48 48
25 26 27 28 29 30 31 32 30 31 30 31 32 33 33 33 33 33 34 35 37 38 38 39 40 41 43 43 43 43 44 45 46 47 47 48 47 47 48 48 48 48 48 48 48 48 48 49 49
26 27 28 29 29 31 31 33 31 32 32 31 32 32 33 33 33 33 34 35 36 37 37 37 38 39 41 43 43 44 44 44 45 46 47 47 46 46 46 47 48 47 48 48 48 49 49 50 50
26 27 29 30 30 31 31 33 32 31 31 31 31 31 31 32 33 33 33 35 35 36 37 38 38 38 38 40 41 42 43 44 45 46 46 47 47 47 48 47 47 47 48 48 49 49 49 49 50
27 28 29 30 31 31 30 32 31 29 29 29 30 29 30 30 31 32 33 34 34 35 36 37 37 38 39 39 39 41 42 44 45 46 47 47 48 48 48 48 48 48 48 48 48 48 48 49 49
28 28 29 31 32 30 29 30 29 28 28 28 29 29 30 30 31 31 32 33 34 34 35 36 36 37 38 39 39 39 39 41 43 45 47 48 48 47 47 48 48 49 48 47 47 47 48 48 48
29 29 29 31 32 31 30 30 29 28 28 28 28 29 30 30 30 31 31 32 33 33 34 34 35 36 37 37 38 40 40 41 42 43 44 46 46 47 46 47 48 48 47 46 46 46 47 47 47
29 29 30 30 31 32 31 30 29 28 28 29 29 29 29 29 29 30 31 32 32 32 33 34 35 36 37 38 39 40 41 41 41 41 42 43 44 45 46 46 46 46 46 46 46 46 46 46 46
28 29 30 30 31 32 32 30 29 30 30 30 30 29 29 29 30 30 30 30 31 32 33 34 35 36 36 37 38 39 40 41 41 41 42 43 43 44 45 45 45 45 45 46 45 45 45 45 45
28 29 30 30 31 31 32 30 30 30 30 30 30 29 29 29 30 30 30 31 31 33 34 34 35 36 37 37 38 38 39 39 39 40 41 42 43 44 45 45 45 45 45 45 45 45 44 45 45
Wind_Direction
253 253 253 251 251 251 251 251 252 252 250 249 249 248 246 246 247 249 250 250 249 247 245 245 244 244 244 243 243 245 247 248 250 251 251 252 252 252 251 250 250 250 249 250 248 248 249 249 249
255 255 254 253 252 252 252 253 253 252 251 249 249 249 248 247 247 247 248 247 247 247 246 245 245 246 246 246 246 246 247 248 249 250 251 251 253 252 252 251 251 251 250 251 252 250 252 252 251
257 256 254 253 252 252 254 253 251 250 251 249 248 249 248 247 246 246 245 245 246 247 249 248 246 247 247 248 248 248 248 249 249 249 251 251 252 252 251 251 252 252 252 253 253 252 253 255 254
258 256 254 253 252 252 253 252 251 250 250 249 249 248 247 247 247 246 246 246 247 248 249 249 246 247 248 249 250 250 250 249 250 250 251 251 251 251 251 252 252 252 253 254 255 254 254 255 255
258 255 254 253 252 252 251 250 249 248 248 247 246 247 248 248 248 247 248 248 249 249 249 249 248 249 250 250 250 251 251 250 250 250 250 251 252 253 252 253 253 252 253 254 255 256 256 255 256
257 256 255 255 254 253 252 251 250 249 248 247 245 246 247 250 250 250 249 250 250 251 251 250 250 250 250 251 251 251 251 251 251 250 251 252 253 254 254 254 255 255 255 255 255 256 257 257 256
257 256 256 256 255 253 253 252 250 249 248 248 248 248 249 251 252 252 251 250 250 251 252 252 252 252 251 251 251 252 252 251 251 251 251 252 252 253 254 254 255 255 256 256 256 256 256 257 257
257 256 256 256 255 253 252 251 249 248 247 248 248 250 251 252 253 254 253 252 252 252 252 253 253 252 252 252 253 254 254 253 253 252 252 252 253 253 254 254 255 255 256 256 257 257 257 257 258
259 258 258 257 255 254 252 250 248 247 248 249 250 251 252 252 253 254 254 252 252 252 252 253 253 252 251 252 253 253 254 253 253 252 252 253 254 254 255 255 255 255 256 256 257 257 257 257 258
261 261 261 257 255 254 251 250 249 248 247 249 249 249 250 252 253 255 256 254 253 253 253 252 253 253 252 251 252 252 253 253 252 252 252 254 254 255 256 257 257 257 256 256 256 257 257 258 258
262 262 262 258 256 255 253 250 250 250 248 249 250 251 250 252 254 255 256 258 257 254 252 251 251 252 253 251 251 253 253 252 251 251 253 254 255 257 258 258 258 258 258 257 257 256 257 258 259
264 263 262 261 258 256 254 252 251 252 252 253 253 252 252 252 254 256 257 259 258 255 253 252 251 251 252 251 250 251 251 252 252 253 254 255 256 257 258 259 260 260 260 259 259 258 258 260 261
266 264 262 261 259 256 255 253 253 254 254 253 254 254 254 254 255 256 257 258 256 254 253 252 252 252 251 250 250 251 252 252 253 254 255 255 256 256 258 259 260 260 261 261 261 261 261 261 262
267 265 263 261 261 260 258 255 254 254 256 256 256 256 257 257 256 257 257 257 256 254 252 251 251 252 251 250 250 251 252 252 252 254 254 255 256 257 258 260 260 260 262 262 262 262 262 262 263
266 265 262 261 262 262 261 258 258 258 259 259 258 257 259 260 258 257 258 258 257 255 253 252 252 252 251 251 251 251 253 253 253 254 255 255 256 257 258 259 260 261 262 263 264 263 264 264 263
266 265 264 264 263 264 262 260 260 261 261 261 261 261 262 262 261 259 259 258 257 256 254 253 252 252 252 252 252 252 253 254 255 255 256 256 257 258 259 260 261 262 263 264 265 265 265 265 265
265 265 266 266 266 265 264 262 262 263 262 264 263 262 263 263 261 261 260 259 258 256 255 253 252 253 253 253 253 253 254 254 257 257 257 257 257 259 259 260 261 262 263 264 265 265 266 266 266
267 266 267 267 267 265 265 265 264 265 266 267 266 264 265 265 264 263 262 261 259 257 256 254 252 253 254 254 254 254 255 255 256 258 258 258 258 259 260 261 262 262 263 264 264 265 265 265 265
267 268 269 269 268 267 266 267 267 267 269 269 267 266 268 268 266 264 263 262 260 259 257 254 253 254 254 254 255 256 256 256 257 258 258 259 260 261 262 262 262 263 263 263 263 265 266 265 265
268 270 271 271 271 270 269 268 269 270 270 271 269 269 270 270 268 266 264 262 260 259 257 254 254 255 254 255 256 257 258 257 257 258 259 260 261 262 262 263 263 263 264 264 264 265 265 265 266
270 272 274 274 273 273 273 271 269 270 272 273 272 271 271 272 270 266 264 262 260 259 257 256 255 255 255 256 258 258 257 257 257 258 260 261 262 262 263 264 264 264 264 265 265 266 266 267 267
272 275 276 276 276 275 276 275 270 272 274 275 274 272 271 272 272 269 266 264 262 259 258 257 256 256 257 257 258 259 257 257 258 259 260 262 262 262 262 263 264 264 265 265 266 266 266 267 267
273 276 278 279 279 278 277 277 274 275 276 276 276 275 272 272 272 271 268 265 262 259 258 258 258 258 258 258 259 259 259 258 259 259 260 261 262 262 263 264 265 265 265 266 266 267 268 268 267
274 276 279 281 281 281 280 279 277 277 278 278 278 277 274 273 273 271 268 266 263 260 259 260 260 261 261 260 259 260 259 259 259 260 261 262 263 263 264 265 266 267 267 268 268 268 268 267 267
275 278 281 283 282 283 281 278 279 281 280 281 281 279 277 276 275 272 269 268 264 261 261 261 261 261 261 261 261 262 261 261 261 261 262 263 263 264 264 265 266 268 268 269 269 269 269 269 269
274 279 282 285 286 285 280 278 281 283 283 283 282 280 278 277 275 273 270 269 266 263 262 262 262 262 262 263 263 264 265 264 264 263 263 263 263 264 264 265 266 267 269 269 269 269 269 269 269
276 278 283 285 285 283 280 280 282 283 284 283 282 281 278 277 275 273 271 270 268 266 264 263 262 262 262 264 265 265 266 267 267 266 265 265 264 265 264 265 266 268 268 269 270 270 270 269 269
277 279 282 283 284 283 282 282 284 285 285 284 283 282 279 277 275 273 271 271 268 266 265 264 264 264 264 265 266 266 267 268 268 269 268 267 266 266 266 266 266 267 268 268 269 270 270 270 269
279 279 279 280 280 282 283 283 285 286 286 286 283 281 280 278 277 274 272 271 269 267 266 265 265 264 265 266 267 268 268 269 269 269 269 268 267 267 268 267 266 266 267 269 269 271 270 270 269
280 280 279 278 280 281 283 286 286 286 286 286 283 280 280 280 279 276 274 272 270 268 267 267 266 266 266 267 267 268 268 268 268 269 269 268 268 267 267 267 266 266 267 269 269 270 270 270 270
Height
5811 5812 5813 5814 5815 5815 5817 5819 5820 5821 5822 5823 5823 5824 5825 5827 5829 5832 5832 5832 5833 5834 5835 5836 5837 5838 5839 5840 5841 5843 5844 5845 5846 5846 5847 5848 5849 5849 5850 5851 5851 5852 5852 5853 5853 5854 5854 5854 5855
5807 5808 5809 5809 5809 5810 5813 5815 5816 5816 5817 5818 5818 5819 5821 5822 5823 5825 5826 5827 5829 5830 5831 5832 5833 5835 5836 5837 5838 5839 5840 5841 5842 5843 5844 5845 5846 5846 5847 5848 5849 5849 5850 5850 5851 5851 5851 5852 5852
5802 5802 5803 5803 5804 5806 5808 5810 5811 5811 5812 5813 5813 5814 5816 5817 5818 5820 5821 5822 5824 5826 5827 5828 5829 5830 5832 5833 5834 5835 5837 5838 5839 5840 5841 5842 5842 5843 5844 5845 5846 5846 5847 5847 5848 5848 5849 5849 5849
5797 5797 5797 5798 5798 5801 5803 5804 5805 5806 5807 5808 5808 5809 5810 5812 5813 5815 5816 5818 5819 5821 5823 5824 5825 5826 5827 5828 5830 5831 5832 5833 5835 5836 5837 5838 5839 5839 5840 5841 5842 5843 5843 5844 5844 5845 5845 5846 5846
5791 5791 5791 5791 5793 5796 5797 5798 5798 5799 5801 5802 5803 5804 5805 5807 5808 5810 5811 5813 5814 5816 5817 5819 5820 5821 5822 5824 5825 5826 5827 5829 5830 5831 5832 5833 5834 5835 5836 5837 5838 5839 5839 5840 5840 5841 5842 5842 5843
5785 5784 5785 5786 5788 5790 5791 5791 5792 5793 5795 5796 5797 5799 5800 5802 5803 5804 5806 5807 5809 5810 5812 5814 5815 5816 5817 5818 5820 5821 5822 5823 5825 5826 5827 5828 5829 5830 5831 5832 5833 5834 5835 5835 5836 5837 5837 5838 5838
5779 5779 5779 5780 5782 5783 5785 5785 5785 5787 5789 5790 5792 5793 5794 5796 5797 5798 5800 5801 5803 5804 5806 5808 5809 5810 5812 5813 5814 5815 5817 5818 5819 5821 5822 5823 5824 5825 5826 5827 5828 5829 5830 5830 5831 5832 5832 5833 5834
5773 5774 5773 5774 5775 5777 5778 5778 5779 5780 5782 5784 5786 5787 5789 5790 5791 5793 5794 5795 5796 5798 5799 5801 5803 5804 5806 5807 5808 5809 5811 5812 5813 5815 5816 5817 5818 5820 5821 5821 5822 5823 5824 5825 5826 5826 5827 5828 5828
5767 5768 5768 5769 5770 5771 5771 5771 5773 5774 5776 5778 5779 5781 5782 5783 5785 5786 5787 5788 5790 5791 5792 5794 5795 5797 5799 5800 5802 5803 5804 5806 5807 5808 5810 5811 5812 5813 5814 5815 5816 5817 5818 5819 5820 5820 5821 5822 5823
5761 5762 5763 5764 5764 5764 5765 5765 5767 5768 5770 5771 5772 5773 5775 5776 5778 5779 5780 5781 5783 5784 5785 5786 5788 5790 5792 5793 5795 5796 5798 5799 5800 5801 5803 5804 5806 5807 5808 5809 5810 5811 5812 5812 5813 5814 5815 5816 5816
5755 5756 5756 5757 5757 5758 5758 5759 5760 5761 5763 5765 5766 5767 5768 5769 5771 5772 5773 5774 5775 5776 5777 5779 5780 5782 5784 5786 5787 5788 5790 5792 5794 5795 5796 5798 5799 5800 5801 5802 5803 5804 5805 5805 5806 5807 5808 5809 5810
5749 5750 5750 5750 5750 5751 5752 5753 5754 5755 5756 5757 5758 5760 5761 5762 5764 5765 5766 5766 5767 5768 5769 5771 5773 5774 5776 5778 5779 5781 5783 5785 5787 5788 5789 5791 5792 5793 5794 5795 5796 5797 5797 5798 5799 5800 5800 5801 5802
5743 5744 5744 5744 5744 5745 5745 5746 5747 5748 5749 5750 5751 5752 5753 5754 5756 5757 5758 5758 5759 5760 5761 5763 5765 5766 5767 5769 5771 5773 5775 5777 5779 5780 5782 5783 5784 5786 5787 5787 5788 5789 5790 5790 5791 5792 5792 5793 5793
5738 5737 5737 5738 5738 5738 5739 5740 5740 5742 5742 5743 5744 5745 5745 5747 5747 5748 5749 5749 5750 5752 5753 5755 5757 5758 5760 5761 5763 5765 5767 5769 5770 5772 5773 5774 5776 5777 5778 5779 5780 5781 5782 5782 5783 5783 5784 5784 5785
5731 5731 5732 5731 5731 5732 5733 5734 5734 5735 5735 5736 5736 5737 5737 5738 5739 5740 5741 5741 5742 5743 5745 5746 5748 5750 5752 5753 5755 5757 5759 5760 5762 5763 5764 5766 5767 5768 5770 5771 5772 5772 5773 5774 5774 5775 5775 5776 5776
5725 5725 5726 5726 5725 5725 5727 5727 5728 5727 5727 5728 5728 5728 5729 5729 5730 5731 5731 5732 5733 5734 5736 5737 5739 5741 5743 5745 5747 5748 5750 5751 5752 5754 5755 5757 5758 5759 5760 5761 5762 5763 5764 5764 5765 5765 5766 5766 5766
5718 5719 5719 5720 5719 5718 5718 5720 5721 5720 5719 5720 5720 5720 5720 5721 5721 5721 5722 5723 5724 5725 5726 5728 5729 5731 5734 5736 5737 5739 5740 5742 5743 5745 5746 5747 5748 5749 5750 5752 5752 5753 5754 5754 5755 5755 5756 5756 5756
5713 5713 5713 5712 5712 5711 5711 5713 5713 5712 5712 5712 5712 5712 5712 5712 5712 5712 5712 5713 5714 5715 5717 5718 5720 5722 5724 5727 5728 5730 5731 5733 5734 5735 5736 5737 5738 5739 5740 5741 5742 5743 5744 5744 5744 5745 5745 5745 5746
5706 5706 5706 5706 5704 5704 5704 5705 5706 5705 5704 5703 5703 5703 5703 5703 5703 5703 5702 5703 5704 5706 5707 5709 5711 5713 5715 5717 5718 5720 5722 5723 5724 5725 5726 5727 5728 5729 5730 5731 5731 5732 5733 5733 5734 5734 5734 5735 5735
5699 5699 5699 5699 5697 5696 5696 5697 5697 5697 5696 5695 5694 5694 5694 5694 5694 5693 5693 5693 5694 5696 5698 5699 5701 5703 5705 5706 5708 5710 5711 5712 5714 5714 5715 5716 5717 5718 5718 5719 5720 5721 5721 5722 5722 5722 5723 5723 5723
5692 5692 5692 5691 5690 5688 5688 5689 5689 5688 5687 5687 5686 5685 5685 5684 5684 5684 5684 5684 5685 5687 5688 5690 5691 5692 5694 5695 5697 5698 5699 5701 5702 5703 5704 5705 5705 5706 5707 5708 5708 5709 5709 5710 5710 5710 5711 5711 5711
5685 5685 5684 5683 5681 5680 5680 5678 5681 5680 5679 5678 5677 5676 5675 5675 5675 5674 5674 5675 5675 5677 5678 5679 5681 5682 5683 5684 5685 5687 5688 5689 5691 5692 5693 5693 5694 5695 5695 5696 5696 5697 5697 5697 5697 5698 5698 5698 5699
5678 5677 5676 5674 5673 5672 5671 5668 5671 5671 5669 5669 5668 5667 5666 5666 5665 5664 5664 5664 5665 5666 5667 5669 5669 5670 5671 5672 5674 5675 5676 5678 5679 5680 5681 5681 5682 5683 5683 5683 5683 5684 5684 5684 5684 5684 5685 5685 5685
5670 5670 5668 5666 5664 5663 5663 5660 5660 5661 5660 5659 5659 5658 5657 5656 5655 5654 5654 5654 5654 5655 5657 5658 5659 5660 5661 5661 5662 5663 5665 5666 5667 5668 5669 5669 5670 5670 5671 5671 5671 5671 5672 5672 5672 5671 5671 5672 5672
5663 5662 5659 5656 5655 5655 5654 5651 5652 5652 5651 5650 5649 5648 5647 5646 5646 5645 5644 5644 5645 5645 5646 5647 5648 5649 5650 5651 5652 5652 5653 5654 5655 5655 5656 5657 5657 5658 5658 5658 5658 5658 5659 5659 5659 5659 5658 5658 5658
5655 5654 5652 5649 5647 5646 5645 5643 5645 5644 5642 5641 5640 5639 5638 5637 5636 5636 5635 5635 5635 5636 5636 5637 5638 5639 5640 5640 5641 5642 5642 5642 5642 5643 5643 5644 5644 5645 5645 5645 5645 5646 5646 5646 5646 5645 5645 5645 5645
5647 5645 5644 5641 5638 5636 5636 5636 5637 5636 5634 5632 5631 5630 5629 5628 5627 5627 5626 5626 5626 5626 5626 5627 5627 5628 5629 5630 5630 5631 5631 5631 5630 5630 5630 5631 5631 5632 5632 5633 5633 5633 5633 5633 5633 5633 5632 5632 5632
5639 5637 5636 5632 5630 5628 5628 5629 5629 5628 5626 5624 5623 5621 5620 5619 5618 5618 5617 5616 5616 5616 5616 5617 5617 5618 5618 5619 5619 5619 5619 5619 5619 5619 5618 5619 5619 5619 5619 5619 5620 5620 5620 5620 5620 5620 5620 5619 5619
5631 5630 5627 5625 5623 5621 5619 5623 5621 5619 5617 5616 5614 5613 5611 5610 5609 5608 5608 5607 5607 5606 5606 5607 5607 5607 5608 5607 5607 5607 5607 5607 5607 5607 5607 5607 5606 5606 5606 5607 5607 5607 5608 5608 5608 5607 5607 5607 5606
5622 5621 5619 5618 5616 5613 5611 5616 5613 5611 5608 5607 5605 5604 5603 5601 5600 5599 5598 5598 5597 5597 5596 5596 5597 5597 5596 5596 5596 5596 5595 5595 5595 5595 5595 5594 5594 5594 5594 5594 5594 5595 5595 5595 5595 5595 5595 5594 5594